This demonstration page uses our WeatherBlox Daily Observations layout. Learn more.

Left ArrowRight Arrow

44.8408, -93.29828

Hourly Observations for May 17, 2022

Temp ( °F °C ) Dew Point ( °F °C ) Humidity (%) Winds ( mph kmh ) Pressure ( in mb ) Visibility ( mi km ) Precip ( " mm )
12:53 am 00:53 Partly Cloudy 57 13.9 38 3.3 49 49 N 7 11 29.97 1015 10 16 0.00 0.00
1:53 am 01:53 Partly Cloudy 56 13.3 39 3.9 53 53 NNE 6 9 29.97 1015 10 16 0.00 0.00
2:53 am 02:53 Partly Cloudy 56 13.3 39 3.9 53 53 E 8 13 29.98 1015 10 16 0.00 0.00
3:53 am 03:53 Mostly Clear 54 12.2 39 3.9 57 57 E 5 7 30.01 1016 10 16 0.00 0.00
4:53 am 04:53 Mostly Clear 52 11.1 39 3.9 61 61 Calm 30.03 1017 10 16 0.00 0.00
5:53 am 05:53 Mostly Sunny 51 10.6 39 3.9 64 64 NE 3 6 30.04 1017 10 16 0.00 0.00
6:53 am 06:53 Partly Cloudy 53 11.7 41 5 64 64 E 7 11 30.02 1017 10 16 0.00 0.00
7:53 am 07:53 Mostly Cloudy 56 13.3 40 4.4 55 55 ESE 10 17 30.03 1017 10 16 0.00 0.00
8:53 am 08:53 Mostly Cloudy 58 14.4 41 5 53 53 ESE 7 11 30.04 1017 10 16 0.00 0.00
9:53 am 09:53 Mostly Cloudy 58 14.4 40 4.4 51 51 SE 7 11 30.04 1017 10 16 0.00 0.00
10:53 am 10:53 Mostly Cloudy 63 17.2 42 5.6 47 47 E 7 11 30.04 1017 10 16 0.00 0.00
11:53 am 11:53 Mostly Cloudy 67 19.4 43 6.1 42 42 ESE 7 11 30.01 1016 10 16 0.00 0.00
12:53 pm 12:53 Mostly Cloudy 67 19.4 42 5.6 41 41 S 6 9 30.00 1016 10 16 0.00 0.00
1:53 pm 13:53 Mostly Cloudy 69 20.6 44 6.7 41 41 SE 7 11 29.98 1015 10 16 0.00 0.00
2:53 pm 14:53 Mostly Cloudy 71 21.7 43 6.1 36 36 SSE 9 15 29.95 1014 10 16 0.00 0.00
3:53 pm 15:53 Mostly Cloudy 71 21.7 42 5.6 35 35 E 8 13 29.94 1014 10 16 0.00 0.00
4:53 pm 16:53 Mostly Cloudy 71 21.7 42 5.6 35 35 SSE 10 17 29.93 1014 10 16 0.00 0.00
5:53 pm 17:53 Mostly Cloudy 71 21.7 41 5 34 34 S 6 9 29.92 1013 10 16 0.00 0.00
6:53 pm 18:53 Cloudy 69 20.6 40 4.4 35 35 S 10 17 29.90 1013 10 16 0.00 0.00
7:53 pm 19:53 Cloudy 66 18.9 43 6.1 43 43 S 8 13 29.91 1013 10 16 0.00 0.00
8:53 pm 20:53 Cloudy with Light Rain 62 16.7 51 10.6 67 67 WSW 8 13 29.94 1014 10 16 0.01 0.25
9:53 pm 21:53 Cloudy with Light Rain 58 14.4 53 11.7 84 84 W 5 7 29.97 1015 7 11 0.04 1.02
10:53 pm 22:53 Cloudy with Light Rain 57 13.9 53 11.7 87 87 SSE 9 15 29.95 1014 10 16 0.03 0.76
11:53 pm 23:53 Cloudy 56 13.3 53 11.7 90 90 SE 6 9 29.95 1014 10 16 0.00 0.00

Powered by AerisWeather